Weather History for PHNY - April, 2014

Change the Weather History Date:

Monday, April 21, 2014

  Actual Average Record
Temperature  
Mean Temperature 73 °F -  
Max Temperature 78 °F 77 °F 82 °F (2013)
Min Temperature 68 °F 61 °F 57 °F (2005)
Cooling Degree Days 8    
Growing Degree Days 23 (Base 50)    
Moisture  
Dew Point 66 °F    
Average Humidity 86    
Maximum Humidity 100    
Minimum Humidity 65    
Precipitation  
Precipitation 0.00 in - - ()
Sea Level Pressure  
Sea Level Pressure 30.12 in    
Wind  
Wind Speed 20 mph (NE)    
Max Wind Speed 36 mph    
Max Gust Speed 46 mph    
Visibility 10 miles    
Events      
Averages and records for this station are not official NWS values.
T = Trace of Precipitation, MM = Missing Value Source: NWS Daily Summary

Daily Weather History Graph

Daily Weather History Graph

Search for Another Location

Airport or City:

Trip Planner

Search our weather history database for the weather conditions in past years. The results will help you decide how hot, cold, wet, or windy it might be!

Date:

Astronomy

Apr. 21, 2014 Rise Set
Actual Time 6:04 AM HST 6:48 PM HST
Civil Twilight 5:41 AM HST 7:11 PM HST
Nautical Twilight 5:14 AM HST 7:38 PM HST
Astronomical Twilight 4:47 AM HST 8:05 PM HST
Moon 12:17 AM HST (4/21) 11:51 AM HST (4/21)
Length of Visible Light 13h 30m
Length of Day
12h 44m
Waning Gibbous, 55% of the Moon is Illuminated
Apr 21
Waning Gibbous
Apr 21
Last Quarter
Apr 28
New
May 6
First Quarter
May 14
Full

Hourly Weather History & Observations

Time (HST) Temp. Dew Point Humidity Pressure Visibility Wind Dir Wind Speed Gust Speed Precip Events Conditions
12:10 AM 68.0 °F 68.0 °F 100% 30.18 in 10.0 mi ENE 9.2 mph - N/A   Overcast
12:36 AM 68.0 °F 68.0 °F 100% 30.17 in 10.0 mi NE 24.2 mph - N/A   Mostly Cloudy
12:56 AM 68.0 °F 68.0 °F 100% 30.11 in 10.0 mi NE 20.7 mph - N/A   Mostly Cloudy
1:07 AM 68.0 °F 68.0 °F 100% 30.16 in 10.0 mi ENE 19.6 mph 26.5 mph N/A   Overcast
1:32 AM 68.0 °F 66.2 °F 94% 30.16 in 10.0 mi ENE 23.0 mph - N/A   Scattered Clouds
1:56 AM 69.8 °F 66.2 °F 88% 30.14 in 10.0 mi NE 28.8 mph 35.7 mph N/A   Mostly Cloudy
2:08 AM 68.0 °F 66.2 °F 94% 30.14 in 10.0 mi ENE 27.6 mph 34.5 mph N/A   Scattered Clouds
2:56 AM 68.9 °F 66.9 °F 93% 30.07 in 10.0 mi ENE 21.9 mph 31.1 mph N/A   Mostly Cloudy
3:56 AM 68.0 °F 66.9 °F 96% 30.08 in 10.0 mi ENE 28.8 mph 35.7 mph N/A   Mostly Cloudy
4:24 AM 69.8 °F 66.2 °F 88% 30.13 in 10.0 mi ENE 24.2 mph - N/A   Mostly Cloudy
4:43 AM 69.8 °F 66.2 °F 88% 30.13 in 10.0 mi NE 29.9 mph 33.4 mph N/A   Mostly Cloudy
4:56 AM 68.0 °F 66.2 °F 94% 30.13 in 10.0 mi NE 31.1 mph 38.0 mph N/A   Mostly Cloudy
5:09 AM 68.0 °F 66.2 °F 94% 30.14 in 10.0 mi NE 25.3 mph - N/A   Mostly Cloudy
5:21 AM 68.0 °F 68.0 °F 100% 30.15 in 10.0 mi ENE 20.7 mph 28.8 mph N/A   Mostly Cloudy
5:28 AM 68.0 °F 66.2 °F 94% 30.14 in 10.0 mi ENE 19.6 mph 29.9 mph N/A   Mostly Cloudy
5:40 AM 68.0 °F 66.2 °F 94% 30.13 in 10.0 mi NE 35.7 mph 46.0 mph N/A   Overcast
5:56 AM 68.9 °F 66.9 °F 93% 30.10 in 10.0 mi NE 29.9 mph 35.7 mph N/A   Overcast
6:56 AM 68.0 °F 65.8 °F 93% 30.08 in 10.0 mi NE 32.2 mph 38.0 mph N/A   Mostly Cloudy
7:35 AM 69.8 °F 66.2 °F 88% 30.15 in 10.0 mi ENE 27.6 mph 33.4 mph N/A   Scattered Clouds
7:42 AM 69.8 °F 66.2 °F 88% 30.16 in 10.0 mi ENE 23.0 mph 33.4 mph N/A   Mostly Cloudy
7:56 AM 69.8 °F 68.0 °F 94% 30.16 in 10.0 mi ENE 25.3 mph 33.4 mph N/A   Mostly Cloudy
8:56 AM 72.0 °F 65.8 °F 81% 30.12 in 10.0 mi ENE 21.9 mph 32.2 mph N/A   Scattered Clouds
9:56 AM 72.0 °F 64.9 °F 78% 30.13 in 10.0 mi NE 25.3 mph 32.2 mph N/A   Partly Cloudy
10:56 AM 75.9 °F 65.8 °F 71% 30.13 in 10.0 mi NE 17.3 mph - N/A   Partly Cloudy
11:56 AM 73.9 °F 65.8 °F 76% 30.12 in 10.0 mi NE 15.0 mph - N/A   Overcast
12:46 PM 73.4 °F 68.0 °F 83% 30.15 in 10.0 mi NE 17.3 mph - N/A   Mostly Cloudy
12:56 PM 74.8 °F 68.0 °F 79% 30.09 in 10.0 mi NE 15.0 mph - N/A   Mostly Cloudy
1:56 PM 73.4 °F 66.2 °F 78% 30.14 in 10.0 mi NE 17.3 mph - N/A   Overcast
2:40 PM 73.4 °F 66.2 °F 78% 30.12 in 10.0 mi NNE 16.1 mph - N/A   Overcast
2:56 PM 73.9 °F 66.9 °F 79% 30.06 in 10.0 mi NE 16.1 mph - N/A   Overcast
3:08 PM 75.2 °F 68.0 °F 78% 30.12 in 10.0 mi NNE 13.8 mph - N/A   Overcast
3:56 PM 75.9 °F 66.9 °F 74% 30.06 in 10.0 mi ENE 9.2 mph - N/A   Overcast
4:41 PM 78.8 °F 66.2 °F 65% 30.12 in 10.0 mi NNE 16.1 mph - N/A   Mostly Cloudy
4:56 PM 75.2 °F 64.4 °F 69% 30.11 in 10.0 mi NE 18.4 mph - N/A   Mostly Cloudy
5:56 PM 75.9 °F 65.8 °F 71% 30.05 in 10.0 mi ENE 10.4 mph - N/A   Mostly Cloudy
6:15 PM 73.4 °F 64.4 °F 73% 30.11 in 10.0 mi NNE 19.6 mph - N/A   Scattered Clouds
6:56 PM 70.0 °F 63.9 °F 81% 30.08 in 10.0 mi ENE 11.5 mph - N/A   Clear
7:56 PM 68.9 °F 63.9 °F 84% 30.09 in 10.0 mi ENE 9.2 mph - N/A   Partly Cloudy
8:56 PM 68.0 °F 63.0 °F 84% 30.10 in 10.0 mi East 6.9 mph - N/A   Clear
9:56 PM 68.0 °F 63.9 °F 87% 30.11 in 10.0 mi ENE 10.4 mph - N/A   Clear
10:56 PM 68.0 °F 63.9 °F 87% 30.10 in 10.0 mi NE 10.4 mph - N/A   Clear
11:56 PM 68.0 °F 63.9 °F 87% 30.09 in 10.0 mi NE 12.7 mph - N/A   Clear